�N����,����,����,����,����,�C��,���x,�~����,�S�V����,�ő�u�ԕ���,,,,,
,,,,,,,,,����,����,����,�N��,,
yyyy/mm/dd,hh:mm:ss,(16),16����,m/s,��,%,mm,KW/�u,(16),16����,m/s,Time,,
2017/7/1,1:00:00,12,��,2.5,16.3,74.9,0,0,12,��,5.1,10,,
2017/7/1,2:00:00,11,���쐼,2.5,18.8,82.5,0,0,10,�쐼,4.4,56,,
2017/7/1,3:00:00,13,���k��,0.4,17.6,77.5,0,0,10,�쐼,4.2,3,,
2017/7/1,4:00:00,13,���k��,2.5,14.9,78.4,0,0,13,���k��,3.6,59,,
2017/7/1,5:00:00,13,���k��,2.5,16.8,84.8,0,0.06,4,��,4,54,,
2017/7/1,6:00:00,2,�k��,1.6,17.7,73.3,0,0.2,12,��,3.4,3,,
2017/7/1,7:00:00,3,���k��,1.5,19.8,67.2,0,0.27,4,��,2.4,54,,
2017/7/1,8:00:00,1,�k�k��,0.9,20.1,64.1,0,0.38,5,���쓌,3,12,,
2017/7/1,9:00:00,5,���쓌,3.1,21.3,47.3,0,0.62,5,���쓌,4.7,54,,
2017/7/1,10:00:00,3,���k��,1.9,25.6,54.2,0,0.9,2,�k��,4,35,,
2017/7/1,11:00:00,4,��,2.1,25.3,58.6,0,0.99,5,���쓌,5.1,28,,
2017/7/1,12:00:00,3,���k��,3.2,23.5,56.7,0,1.03,4,��,4.9,30,,
2017/7/1,13:00:00,4,��,2.9,26.3,54.8,0,0.98,3,���k��,5.2,33,,
2017/7/1,14:00:00,5,���쓌,2.5,24.9,52.6,0,0.87,5,���쓌,4.3,16,,
2017/7/1,15:00:00,4,��,1.7,26.1,52.8,0,0.73,4,��,3.2,8,,
2017/7/1,16:00:00,4,��,2.4,23.7,51.1,0,0.57,4,��,3.2,53,,
2017/7/1,17:00:00,4,��,1.9,22.1,60.3,0,0.33,4,��,3,23,,
2017/7/1,18:00:00,4,��,2.6,18.8,74.2,0,0.15,4,��,3.7,48,,
2017/7/1,19:00:00,16,�É�,0,17.3,81.5,0,0.04,4,��,3.2,0,,
2017/7/1,20:00:00,16,�É�,0,16.1,86.4,0,0,4,��,3.1,12,,
2017/7/1,21:00:00,16,�É�,0.2,15.7,88.4,0,0,3,���k��,1.6,56,,
2017/7/1,22:00:00,2,�k��,2.2,16.1,90.1,0,0,3,���k��,3.6,58,,
2017/7/1,23:00:00,16,�É�,0,15.7,90.2,0,0,2,�k��,2.8,0,,
2017/7/1,0:00:00,16,�É�,0.1,15.8,91.2,0,0,11,���쐼,1.8,15,,
2017/7/2,1:00:00,16,�É�,0,15,91.3,0,0,11,���쐼,1.6,0,,
2017/7/2,2:00:00,16,�É�,0,14.2,92.8,0,0,12,��,2.6,18,,
2017/7/2,3:00:00,16,�É�,0.2,14.4,93.1,0,0,12,��,2.2,19,,
2017/7/2,4:00:00,12,��,0.8,14.9,95.7,0,0,12,��,2.5,58,,
2017/7/2,5:00:00,12,��,0.6,15.5,96.1,0,0.04,12,��,2.2,48,,
2017/7/2,6:00:00,16,�É�,0,18.2,88.6,0,0.19,16,�É�,0.2,0,,
2017/7/2,7:00:00,8,��,1.8,18.2,71,0,0.28,7,��쓌,2.5,43,,
2017/7/2,8:00:00,6,�쓌,1.6,18.9,69.7,0,0.46,7,��쓌,3,32,,
2017/7/2,9:00:00,4,��,1,21.1,61.5,0,0.61,6,�쓌,2.5,46,,
2017/7/2,10:00:00,6,�쓌,2.2,21.9,58.7,0,0.71,5,���쓌,3.4,44,,
2017/7/2,11:00:00,6,�쓌,2.8,21.7,58.3,0,0.97,5,���쓌,4.1,54,,
2017/7/2,12:00:00,6,�쓌,3,21.6,61.9,0,1.02,7,��쓌,4.5,16,,
2017/7/2,13:00:00,6,�쓌,2.6,22.2,56.6,0,1,4,��,4.7,6,,
2017/7/2,14:00:00,5,���쓌,2,23,59.5,0,0.85,5,���쓌,4.5,8,,
2017/7/2,15:00:00,4,��,2.3,23.9,58.8,0,0.75,5,���쓌,4,48,,
2017/7/2,16:00:00,4,��,1.7,22.1,61.3,0,0.51,3,���k��,4.5,0,,
2017/7/2,17:00:00,3,���k��,5.7,20,85.4,0,0.25,3,���k��,12.1,1,,
2017/7/2,18:00:00,4,��,2,20.3,82.3,0,0.12,2,�k��,7.4,10,,
2017/7/2,19:00:00,9,��쐼,0.8,18.9,83.2,0,0.03,5,���쓌,2.5,22,,
2017/7/2,20:00:00,9,��쐼,0.7,18.1,87.8,0,0,9,��쐼,3.3,4,,
2017/7/2,21:00:00,8,��,1.4,18.3,89.4,0,0,9,��쐼,2.5,1,,
2017/7/2,22:00:00,16,�É�,0,17,90.5,0,0,9,��쐼,2.4,9,,
2017/7/2,23:00:00,16,�É�,0,16.7,91.3,0,0,9,��쐼,1.3,0,,
2017/7/2,0:00:00,16,�É�,0,16.1,93.1,0,0,2,�k��,2,19,,
2017/7/3,1:00:00,7,��쓌,1,16.3,94.5,0,0,7,��쓌,2.6,52,,
2017/7/3,2:00:00,16,�É�,0,15.8,94.4,0,0,6,�쓌,2.1,6,,
2017/7/3,3:00:00,6,�쓌,3.4,14.3,91.6,0,0,5,���쓌,4.9,52,,
2017/7/3,4:00:00,6,�쓌,0.7,13.6,94.6,0,0,5,���쓌,4.2,1,,
2017/7/3,5:00:00,16,�É�,0,13.6,95.8,0,0.01,7,��쓌,2.2,0,,
2017/7/3,6:00:00,16,�É�,0.2,13.9,96.1,0,0.03,8,��,1.9,43,,
2017/7/3,7:00:00,8,��,0.7,14.2,95.5,0,0.08,8,��,2.5,29,,
2017/7/3,8:00:00,8,��,1.4,14.3,92.8,0,0.14,7,��쓌,3,30,,
2017/7/3,9:00:00,5,���쓌,2,14.4,90.9,0,0.18,5,���쓌,3.3,57,,
2017/7/3,10:00:00,6,�쓌,2.3,14,88.6,0,0.25,6,�쓌,3.4,51,,
2017/7/3,11:00:00,5,���쓌,2,14.4,90.1,0,0.28,5,���쓌,3.5,19,,
2017/7/3,12:00:00,6,�쓌,2.3,14.4,86,0,0.31,6,�쓌,3.5,41,,
2017/7/3,13:00:00,6,�쓌,2.5,13.8,88.1,0,0.29,6,�쓌,4,47,,
2017/7/3,14:00:00,6,�쓌,2.3,13.4,92,0,0.19,6,�쓌,3.7,24,,
2017/7/3,15:00:00,6,�쓌,2.4,13.6,93.1,0,0.15,6,�쓌,3.6,50,,
2017/7/3,16:00:00,5,���쓌,1.7,13.6,92.7,0,0.12,7,��쓌,3.3,6,,
2017/7/3,17:00:00,5,���쓌,1.5,13.3,98.5,0,0.06,5,���쓌,3.1,17,,
2017/7/3,18:00:00,5,���쓌,1.9,12.9,99.2,0,0.02,,,,,,
2017/7/3,19:00:00,4,��,1.9,12.7,99.5,0,0.01,4,��,2.5,48,,
2017/7/3,20:00:00,5,���쓌,1,12.7,99.8,0.5,0,4,��,3.2,9,,
2017/7/3,21:00:00,3,���k��,1.1,12.7,99.9,0,0,3,���k��,2.3,42,,
2017/7/3,22:00:00,16,�É�,0,12.9,100,0,0,2,�k��,1.9,10,,
2017/7/3,23:00:00,16,�É�,0,13,100,0.5,0,16,�É�,0,0,,
2017/7/3,0:00:00,16,�É�,0,13,100,0,0,1,�k�k��,0.3,37,,
2017/7/4,1:00:00,16,�É�,0,13.2,100,0,0,16,�É�,0,0,,
2017/7/4,2:00:00,16,�É�,0,13.3,100,0,0,16,�É�,0,0,,
2017/7/4,3:00:00,16,�É�,0.1,13,100,0,0,4,��,1.7,33,,
2017/7/4,4:00:00,16,�É�,0,12.7,100,0,0,5,���쓌,1.9,40,,
2017/7/4,5:00:00,16,�É�,0,13,100,0,0.01,5,���쓌,0.4,0,,
2017/7/4,6:00:00,5,���쓌,0.6,13.1,100,0,0.06,5,���쓌,2.1,21,,
2017/7/4,7:00:00,16,�É�,0,13.1,100,0,0.1,6,�쓌,1.9,37,,
2017/7/4,8:00:00,16,�É�,0,13.5,100,0.5,0.13,10,�쐼,1.8,29,,
2017/7/4,9:00:00,16,�É�,0,13.7,99.5,2.5,0.12,8,��,0.8,18,,
2017/7/4,10:00:00,16,�É�,0,14.3,98.2,0.5,0.1,16,�É�,0.1,53,,
2017/7/4,11:00:00,7,��쓌,1.6,13.6,99,3,0.12,7,��쓌,2.6,21,,
2017/7/4,12:00:00,8,��,1.5,14.1,99.5,2.5,0.15,8,��,2.7,40,,
2017/7/4,13:00:00,6,�쓌,1.6,15.3,96.7,0.5,0.32,6,�쓌,3,59,,
2017/7/4,14:00:00,7,��쓌,2.4,16.9,91,0,0.87,6,�쓌,4,55,,
2017/7/4,15:00:00,6,�쓌,2.6,16,89,0,0.78,6,�쓌,4.2,18,,
2017/7/4,16:00:00,7,��쓌,2.2,15.3,89.4,0,0.48,6,�쓌,4.4,15,,
2017/7/4,17:00:00,7,��쓌,1.7,14.6,92,0,0.15,9,��쐼,3.3,44,,
2017/7/4,18:00:00,6,�쓌,2.4,14,93,0,0.16,6,�쓌,3.5,43,,
2017/7/4,19:00:00,8,��,1.5,13.2,95.9,0,0.05,8,��,3.3,46,,
2017/7/4,20:00:00,16,�É�,0.1,12.8,98.7,0,0,9,��쐼,3.1,22,,
2017/7/4,21:00:00,3,���k��,1.6,12.6,99.4,0,0,3,���k��,2.5,52,,
2017/7/4,22:00:00,16,�É�,0,12.6,99.9,0,0,2,�k��,1.7,5,,
2017/7/4,23:00:00,16,�É�,0,12.7,100,0,0,10,�쐼,1.4,4,,
2017/7/4,0:00:00,16,�É�,0.1,13,100,0,0,1,�k�k��,1.5,59,,
2017/7/5,1:00:00,16,�É�,0,12.9,100,0,0,1,�k�k��,1.4,2,,
2017/7/5,2:00:00,16,�É�,0,13.1,100,0,0,16,�É�,0,0,,
2017/7/5,3:00:00,16,�É�,0,13.4,100,0,0,1,�k�k��,1.2,26,,
2017/7/5,4:00:00,16,�É�,0,13.5,100,0,0,16,�É�,0,0,,
2017/7/5,5:00:00,16,�É�,0,13.8,100,0,0.03,10,�쐼,1.3,59,,
2017/7/5,6:00:00,16,�É�,0,15.4,100,0,0.13,10,�쐼,1.5,0,,
2017/7/5,7:00:00,16,�É�,0,16.5,98.8,0,0.25,3,���k��,1.9,29,,
2017/7/5,8:00:00,5,���쓌,1.7,19,88.8,0,0.51,6,�쓌,3.2,54,,
2017/7/5,9:00:00,7,��쓌,2.1,17.8,86.8,0,0.75,7,��쓌,3.9,19,,
2017/7/5,10:00:00,7,��쓌,2.8,16.2,88.2,0,0.73,8,��,6.1,34,,
2017/7/5,11:00:00,8,��,3.2,18.5,84.5,0,0.97,8,��,5.4,59,,
2017/7/5,12:00:00,8,��,2.9,19.6,78.6,0,1.04,9,��쐼,5.7,2,,
2017/7/5,13:00:00,7,��쓌,2.8,18.8,81.9,0,1.02,7,��쓌,4.9,54,,
2017/7/5,14:00:00,7,��쓌,2,22,79.3,0,0.92,8,��,4.5,9,,
2017/7/5,15:00:00,7,��쓌,2.2,21.5,76.5,0,0.78,7,��쓌,3.7,41,,
2017/7/5,16:00:00,7,��쓌,1.7,21.9,73.6,0,0.58,7,��쓌,3.2,51,,
2017/7/5,17:00:00,16,�É�,0,21.1,81.6,0,0.33,6,�쓌,2.5,2,,
2017/7/5,18:00:00,16,�É�,0,20.7,85.9,0,0.12,16,�É�,0,0,,
2017/7/5,19:00:00,16,�É�,0,19.5,92.6,0,0.03,16,�É�,0,0,,
2017/7/5,20:00:00,4,��,1.2,16.9,91.6,0,0,4,��,2,45,,
2017/7/5,21:00:00,4,��,0.9,16.5,93.3,0,0,5,���쓌,2.6,13,,
2017/7/5,22:00:00,3,���k��,2.5,16,94,0,0,4,��,4.5,45,,
2017/7/5,23:00:00,2,�k��,1.8,16.1,94,0,0,3,���k��,4.1,14,,
2017/7/5,0:00:00,13,���k��,1.2,16.5,95.6,0,0,13,���k��,2.2,53,,
2017/7/6,1:00:00,16,�É�,0,15.6,98.1,0,0,12,��,2.3,9,,
2017/7/6,2:00:00,16,�É�,0,14.2,99,0,0,16,�É�,0,0,,
2017/7/6,3:00:00,14,�k��,0.6,15.8,99.8,0,0,14,�k��,2.3,49,,
2017/7/6,4:00:00,16,�É�,0,15.9,99.6,0,0,16,�É�,0,0,,
2017/7/6,5:00:00,16,�É�,0,16.5,99.3,0,0.03,16,�É�,0,0,,
2017/7/6,6:00:00,16,�É�,0,17.5,94.8,0,0.1,11,���쐼,0.3,35,,
2017/7/6,7:00:00,16,�É�,0.1,19,90.8,0,0.2,6,�쓌,1.4,52,,
2017/7/6,8:00:00,7,��쓌,1.1,19.8,86.2,0,0.4,6,�쓌,2.4,14,,
2017/7/6,9:00:00,6,�쓌,1.9,21.2,81.7,0,0.68,6,�쓌,3.7,29,,
2017/7/6,10:00:00,7,��쓌,2.1,20.7,81.9,0,0.73,6,�쓌,3.9,14,,
2017/7/6,11:00:00,6,�쓌,2.6,20.7,78.7,0,0.96,5,���쓌,4.2,41,,
2017/7/6,12:00:00,9,��쐼,2.3,20.6,76.4,0,0.76,7,��쓌,4,3,,
2017/7/6,13:00:00,7,��쓌,2.1,20.4,80.6,0,0.53,10,�쐼,4.2,0,,
2017/7/6,14:00:00,4,��,3.4,20.5,83.7,0,0.76,4,��,4.8,50,,
2017/7/6,15:00:00,4,��,3.1,18.3,85.9,0,0.72,4,��,5.5,32,,
2017/7/6,16:00:00,3,���k��,2,20.4,84.6,0,0.56,3,���k��,4.2,1,,
2017/7/6,17:00:00,3,���k��,0.8,21.3,85.2,0,0.39,3,���k��,2.9,33,,
2017/7/6,18:00:00,5,���쓌,1.7,19.2,88.6,0,0.2,4,��,2.5,33,,
2017/7/6,19:00:00,4,��,1.8,16.8,95,0,0.05,5,���쓌,2.7,7,,
2017/7/6,20:00:00,4,��,2.9,15.8,97.5,0,0,4,��,4.6,39,,
2017/7/6,21:00:00,4,��,1.7,14.9,99.2,0,0,3,���k��,4.3,21,,
2017/7/6,22:00:00,16,�É�,0,14.4,99.8,0,0,5,���쓌,2,23,,
2017/7/6,23:00:00,16,�É�,0,14.4,100,0,0,4,��,1.7,3,,
2017/7/6,0:00:00,16,�É�,0,14.4,100,0,0,16,�É�,0,0,,
2017/7/7,1:00:00,16,�É�,0,13.7,100,0,0,11,���쐼,1.3,47,,
2017/7/7,2:00:00,13,���k��,1.9,14.2,100,0,0,13,���k��,2.7,56,,
2017/7/7,3:00:00,13,���k��,1.9,13.7,100,0,0,13,���k��,2.9,2,,
2017/7/7,4:00:00,12,��,2.5,13.3,100,0,0,12,��,2.9,50,,
2017/7/7,5:00:00,2,�k��,0.7,14.1,100,0,0.05,12,��,2.5,7,,
2017/7/7,6:00:00,16,�É�,0,16.6,100,0,0.21,2,�k��,1.7,10,,
2017/7/7,7:00:00,16,�É�,0,19.8,86.7,0,0.41,11,���쐼,1.3,16,,
2017/7/7,8:00:00,16,�É�,0.1,24.6,75.9,0,0.6,11,���쐼,1.6,47,,
2017/7/7,9:00:00,9,��쐼,0.7,26.9,62.2,0,0.78,7,��쓌,2.9,34,,
2017/7/7,10:00:00,8,��,2.8,27.6,59.4,0,0.9,9,��쐼,5.2,56,,
2017/7/7,11:00:00,7,��쓌,2.7,27.7,52.7,0,1.02,7,��쓌,5.1,42,,
2017/7/7,12:00:00,8,��,3.2,26.9,50.1,0,1.08,8,��,5.6,44,,
2017/7/7,13:00:00,8,��,3.1,27.6,50.6,0,1,7,��쓌,6.2,55,,
2017/7/7,14:00:00,7,��쓌,2.5,27.6,53.2,0,0.9,7,��쓌,5,21,,
2017/7/7,15:00:00,8,��,2.8,27.3,53.1,0,0.76,7,��쓌,4.2,19,,
2017/7/7,16:00:00,5,���쓌,1,26.6,61.3,0,0.59,8,��,4.3,2,,
2017/7/7,17:00:00,4,��,1.4,26.2,61.6,0,0.41,4,��,2.7,32,,
2017/7/7,18:00:00,4,��,0.3,24,71.5,0,0.22,3,���k��,2.5,18,,
2017/7/7,19:00:00,16,�É�,0.2,18.7,88.4,0,0.07,4,��,3.7,29,,
2017/7/7,20:00:00,16,�É�,0,18,88.5,0,0,5,���쓌,2.4,1,,
2017/7/7,21:00:00,16,�É�,0,17.2,92.3,0,0,5,���쓌,2.1,27,,
2017/7/7,22:00:00,16,�É�,0,15.7,96.7,0,0,16,�É�,0,0,,
2017/7/7,23:00:00,16,�É�,0,15.8,98,0,0,16,�É�,0,0,,
2017/7/7,0:00:00,16,�É�,0,15.9,99.2,0,0,12,��,1.6,15,,
2017/7/8,1:00:00,16,�É�,0,15.2,98.8,0,0,12,��,1.8,25,,
2017/7/8,2:00:00,12,��,0.6,15.2,99.5,0,0,12,��,2.5,21,,
2017/7/8,3:00:00,16,�É�,0,14.5,99,0,0,12,��,2.5,39,,
2017/7/8,4:00:00,16,�É�,0,14.3,99,0,0,12,��,2.5,5,,
2017/7/8,5:00:00,16,�É�,0,16.1,99.5,0,0.06,11,���쐼,1.9,7,,
2017/7/8,6:00:00,16,�É�,0,21.5,86.2,0,0.23,16,�É�,0,0,,
2017/7/8,7:00:00,12,��,2.2,25.7,65.2,0,0.42,13,���k��,3.3,53,,
2017/7/8,8:00:00,13,���k��,3.7,27.8,47.5,0,0.61,13,���k��,6.6,58,,
2017/7/8,9:00:00,14,�k��,3.6,29.7,41.7,0,0.79,13,���k��,7.1,13,,
2017/7/8,10:00:00,13,���k��,2,31.3,36.5,0,0.93,13,���k��,5.9,3,,
2017/7/8,11:00:00,7,��쓌,1.2,30.5,47.4,0,1.04,13,���k��,4.8,17,,
2017/7/8,12:00:00,8,��,2.2,30.5,44.3,0,1.07,8,��,6.3,56,,
2017/7/8,13:00:00,9,��쐼,3.2,31.2,37.8,0,1.03,8,��,6.7,59,,
2017/7/8,14:00:00,9,��쐼,3.6,30.5,39,0,0.92,8,��,6.5,43,,
2017/7/8,15:00:00,7,��쓌,2.6,29.6,43.8,0,0.78,8,��,6.1,14,,
2017/7/8,16:00:00,9,��쐼,2.7,29.1,43.8,0,0.58,9,��쐼,7.2,14,,
2017/7/8,17:00:00,6,�쓌,0.8,28.9,53.3,0,0.46,9,��쐼,5.5,9,,
2017/7/8,18:00:00,16,�É�,0,26.3,68.7,0,0.24,8,��,3.2,7,,
2017/7/8,19:00:00,16,�É�,0,21.9,83.8,0,0.05,16,�É�,0,0,,
2017/7/8,20:00:00,4,��,1.4,19.8,86.8,0,0,4,��,2.8,58,,
2017/7/8,21:00:00,4,��,0.3,18,91.5,0,0,4,��,2.8,0,,
2017/7/8,22:00:00,3,���k��,1.8,18.1,84.5,0,0,3,���k��,3.5,27,,
2017/7/8,23:00:00,16,�É�,0,16.4,93.4,0,0,2,�k��,2.7,15,,
2017/7/8,0:00:00,16,�É�,0,16.6,96.4,0,0,12,��,2.3,14,,
2017/7/9,1:00:00,12,��,0.5,16.7,98.3,0,0,12,��,2.3,49,,
2017/7/9,2:00:00,16,�É�,0,15.7,98.5,0,0,12,��,2.1,10,,
2017/7/9,3:00:00,16,�É�,0,15.2,99.1,0,0,12,��,2.3,30,,
2017/7/9,4:00:00,14,�k��,1.3,16.3,99.5,0,0,12,��,2.5,21,,
2017/7/9,5:00:00,16,�É�,0,17.1,98.5,0,0.06,14,�k��,2.1,2,,
2017/7/9,6:00:00,16,�É�,0.1,21.2,85.8,0,0.26,2,�k��,1.6,58,,
2017/7/9,7:00:00,2,�k��,0.8,22.7,77.6,0,0.48,2,�k��,2.4,48,,
2017/7/9,8:00:00,4,��,3,22.3,75.3,0,0.56,4,��,4.4,54,,
2017/7/9,9:00:00,5,���쓌,2.1,23.2,70.9,0,0.65,4,��,4.3,3,,
2017/7/9,10:00:00,6,�쓌,2.5,23.6,67.4,0,0.9,5,���쓌,4.1,34,,
2017/7/9,11:00:00,5,���쓌,2.3,23.8,66.7,0,1.04,6,�쓌,4.3,13,,
2017/7/9,12:00:00,6,�쓌,2.7,21.8,75.4,0,1,5,���쓌,4.2,7,,
2017/7/9,13:00:00,6,�쓌,2.7,21.4,79.3,0,0.9,5,���쓌,4.2,22,,
2017/7/9,14:00:00,7,��쓌,2.3,22.1,74.9,0,0.87,7,��쓌,4,31,,
2017/7/9,15:00:00,6,�쓌,2,23.1,73.2,0,0.78,6,�쓌,4.1,0,,
2017/7/9,16:00:00,6,�쓌,1.3,22,74.2,0,0.6,6,�쓌,3.6,5,,
2017/7/9,17:00:00,6,�쓌,1.6,21.6,77.7,0,0.4,6,�쓌,2.8,49,,
2017/7/9,18:00:00,16,�É�,0,20.4,84,0,0.21,5,���쓌,2.1,18,,
2017/7/9,19:00:00,4,��,0.7,18,92.6,0,0.05,4,��,2.3,46,,
2017/7/9,20:00:00,4,��,2.3,17.5,95.7,0,0,3,���k��,3.4,57,,
2017/7/9,21:00:00,16,�É�,0,16.7,96.3,0,0,3,���k��,2.9,14,,
2017/7/9,22:00:00,16,�É�,0,15.1,99.2,0,0,16,�É�,0,0,,
2017/7/9,23:00:00,12,��,0.8,14.4,99.2,0,0,12,��,1.8,54,,
2017/7/9,0:00:00,12,��,2.3,15.1,99.7,0,0,12,��,2.7,52,,
2017/7/10,1:00:00,12,��,1,14.9,99.7,0,0,13,���k��,2.3,28,,
2017/7/10,2:00:00,14,�k��,1.2,14.8,99.5,0,0,12,��,2.9,21,,
2017/7/10,3:00:00,13,���k��,1.9,15.5,99.2,0,0,13,���k��,2.7,36,,
2017/7/10,4:00:00,13,���k��,1.3,15.1,98.7,0,0,13,���k��,2.7,22,,
2017/7/10,5:00:00,12,��,1.3,16.5,98.9,0,0.05,12,��,3.3,18,,
2017/7/10,6:00:00,16,�É�,0.2,20,90.9,0,0.22,12,��,2.7,47,,
2017/7/10,7:00:00,16,�É�,0.1,23.1,82.6,0,0.42,2,�k��,1.6,12,,
2017/7/10,8:00:00,6,�쓌,0.8,24,80.4,0,0.56,4,��,2.8,24,,
2017/7/10,9:00:00,7,��쓌,2,23.2,71.5,0,0.6,7,��쓌,2.8,55,,
2017/7/10,10:00:00,7,��쓌,2.5,24.5,70.5,0,0.69,7,��쓌,3.6,58,,
2017/7/10,11:00:00,8,��,2.6,24.9,66.4,0,0.95,7,��쓌,4.9,23,,
2017/7/10,12:00:00,7,��쓌,3.2,23.6,65.2,0,1.02,7,��쓌,4.9,35,,
2017/7/10,13:00:00,7,��쓌,2.7,23.6,69,0,0.99,7,��쓌,5.1,25,,
2017/7/10,14:00:00,8,��,2.5,22.4,71.8,0,0.84,7,��쓌,4.7,14,,
2017/7/10,15:00:00,6,�쓌,2.5,22.6,76.5,0,0.64,7,��쓌,5.1,10,,
2017/7/10,16:00:00,4,��,3.6,20.9,80,0,0.58,5,���쓌,5.2,57,,
2017/7/10,17:00:00,4,��,3.8,19.8,82.7,0,0.41,4,��,5.6,12,,
2017/7/10,18:00:00,3,���k��,3.9,17.8,89.3,0,0.17,3,���k��,6.6,59,,
2017/7/10,19:00:00,3,���k��,2.6,17.3,93.6,0,0.03,3,���k��,6.1,3,,
2017/7/10,20:00:00,2,�k��,2.7,17.3,94.8,0,0,3,���k��,4.5,6,,
2017/7/10,21:00:00,1,�k�k��,1.9,17.6,93.8,0,0,1,�k�k��,5.1,28,,
2017/7/10,22:00:00,2,�k��,2.5,18,94.4,0,0,2,�k��,4.3,54,,
2017/7/10,23:00:00,1,�k�k��,2.1,18.2,95.3,0,0,1,�k�k��,4.2,37,,
2017/7/10,0:00:00,2,�k��,2.3,18.3,96.1,0,0,2,�k��,3,50,,
2017/7/11,1:00:00,1,�k�k��,1.3,18.2,96.6,0,0,2,�k��,4.2,17,,
2017/7/11,2:00:00,16,�É�,0.1,18.3,95.4,0,0,2,�k��,2.3,0,,
2017/7/11,3:00:00,16,�É�,0,18.3,96.2,0,0,16,�É�,0,0,,
2017/7/11,4:00:00,16,�É�,0,18,97.1,0,0,16,�É�,0,0,,
2017/7/11,5:00:00,16,�É�,0,18.1,97.4,0,0.02,6,�쓌,1.8,9,,
2017/7/11,6:00:00,16,�É�,0,18.6,94.9,0,0.07,2,�k��,1.1,19,,
2017/7/11,7:00:00,4,��,0.6,19.3,92.6,0,0.12,4,��,2.3,47,,
2017/7/11,8:00:00,5,���쓌,2.7,19.5,91.2,0,0.27,5,���쓌,3.4,59,,
2017/7/11,9:00:00,4,��,2.2,20.2,90.8,0,0.34,4,��,4.3,13,,
2017/7/11,10:00:00,5,���쓌,2.7,20.1,90.6,0,0.46,5,���쓌,3.9,41,,
2017/7/11,11:00:00,5,���쓌,2.2,19.6,91.4,0,0.41,4,��,4,11,,
2017/7/11,12:00:00,4,��,2.5,21.8,86.5,0,0.76,4,��,4.4,59,,
2017/7/11,13:00:00,4,��,2.2,19.9,91.6,0,0.52,4,��,4.6,9,,
2017/7/11,14:00:00,3,���k��,2.3,19.6,88.3,0,0.38,3,���k��,3.7,46,,
2017/7/11,15:00:00,5,���쓌,2.1,20.3,87.6,0,0.48,4,��,3.7,49,,
2017/7/11,16:00:00,6,�쓌,1.4,18.3,92.8,0,0.25,4,��,3.2,3,,
2017/7/11,17:00:00,4,��,1,18.4,92.1,0,0.14,6,�쓌,2.1,2,,
2017/7/11,18:00:00,5,���쓌,1.7,17.7,93.6,0,0.06,5,���쓌,2.5,20,,
2017/7/11,19:00:00,16,�É�,0.2,17.1,94.7,0,0.02,3,���k��,2.6,14,,
2017/7/11,20:00:00,16,�É�,0,17,95.8,0,0,4,��,2.4,22,,
2017/7/11,21:00:00,16,�É�,0.2,16.9,96.3,0,0,4,��,1.7,52,,
2017/7/11,22:00:00,16,�É�,0,16.9,96.8,0,0,1,�k�k��,2,42,,
2017/7/11,23:00:00,16,�É�,0,16.9,95.9,0,0,3,���k��,1.5,23,,
2017/7/11,0:00:00,16,�É�,0,17,97.2,0,0,16,�É�,0,0,,
2017/7/12,1:00:00,16,�É�,0,16.9,97.6,0,0,2,�k��,1.6,2,,
2017/7/12,2:00:00,16,�É�,0,17.1,98,0,0,16,�É�,0,0,,
2017/7/12,3:00:00,16,�É�,0,16.7,98.4,0,0,5,���쓌,1.9,38,,
2017/7/12,4:00:00,2,�k��,0.9,16.5,98.8,0,0,2,�k��,2,54,,
2017/7/12,5:00:00,16,�É�,0.1,17,99.2,0,0.03,3,���k��,1.5,2,,
2017/7/12,6:00:00,16,�k,0.6,17.5,98.5,0,0.09,2,�k��,2.1,4,,
2017/7/12,7:00:00,4,��,1.6,20.3,90.9,0,0.33,4,��,3.1,48,,
2017/7/12,8:00:00,5,���쓌,1.2,21.5,86.7,0,0.56,6,�쓌,3,57,,
2017/7/12,9:00:00,6,�쓌,1.9,20.2,88.8,0,0.5,5,���쓌,3.5,5,,
2017/7/12,10:00:00,6,�쓌,1.1,21.4,86,0,0.36,5,���쓌,2.5,56,,
2017/7/12,11:00:00,6,�쓌,2.1,25.1,73.2,0,0.78,9,��쐼,5.6,50,,
2017/7/12,12:00:00,11,���쐼,5.9,29.7,62.8,0,1.06,11,���쐼,9.5,34,,
2017/7/12,13:00:00,10,�쐼,5.4,30.3,62,0,0.9,11,���쐼,9.1,12,,
2017/7/12,14:00:00,11,���쐼,4.7,29.2,65.1,0,0.78,11,���쐼,9,26,,
2017/7/12,15:00:00,11,���쐼,3.3,30.4,62.2,0,0.77,11,���쐼,7.7,26,,
2017/7/12,16:00:00,14,�k��,2.4,30.9,60.5,0,0.57,13,���k��,6,9,,
2017/7/12,17:00:00,16,�k,1.4,30.6,59.9,0,0.44,16,�k,4.9,5,,
2017/7/12,18:00:00,13,���k��,2.2,29,64.9,0,0.24,12,��,3.9,50,,
2017/7/12,19:00:00,14,�k��,0.4,26.1,80.3,0,0.06,13,���k��,2.9,2,,
2017/7/12,20:00:00,13,���k��,1.7,23.8,86.7,0,0,12,��,4,54,,
2017/7/12,21:00:00,13,���k��,0.8,21.8,89.9,0,0,12,��,3.1,46,,
2017/7/12,22:00:00,13,���k��,2.3,20.4,91.6,0,0,13,���k��,3.2,51,,
2017/7/12,23:00:00,13,���k��,1,19.6,93.1,0,0,13,���k��,3.7,26,,
2017/7/12,0:00:00,16,�É�,0,19.6,90.6,0,0,12,��,3.1,13,,
2017/7/13,1:00:00,14,�k��,1.9,19.6,87.2,0,0,14,�k��,3.5,49,,
2017/7/13,2:00:00,12,��,2.1,17.5,91.7,0,0,14,�k��,3.1,0,,
2017/7/13,3:00:00,13,���k��,2,16.3,94.2,0,0,12,��,3.2,35,,
2017/7/13,4:00:00,13,���k��,2.5,16.2,95.6,0,0,13,���k��,3.1,56,,
2017/7/13,5:00:00,14,�k��,1.6,17.5,90.7,0,0.06,13,���k��,3.6,30,,
2017/7/13,6:00:00,16,�É�,0,20.1,82.6,0,0.23,12,��,1.5,27,,
2017/7/13,7:00:00,14,�k��,0.5,23.2,70,0,0.42,12,��,1.7,35,,
2017/7/13,8:00:00,16,�É�,0.2,26.4,66.5,0,0.61,6,�쓌,1.8,59,,
2017/7/13,9:00:00,6,�쓌,1.6,26.9,63.9,0,0.78,6,�쓌,3.6,54,,
2017/7/13,10:00:00,6,�쓌,2.1,26.8,63.9,0,0.92,6,�쓌,4,45,,
2017/7/13,11:00:00,6,�쓌,1,27.1,64.3,0,1.02,6,�쓌,4,3,,
2017/7/13,12:00:00,6,�쓌,0.5,27.2,60.9,0,1.05,6,�쓌,3,0,,
2017/7/13,13:00:00,5,���쓌,0.6,28,65.4,0,1.02,5,���쓌,1.4,1,,
2017/7/13,14:00:00,5,���쓌,1.6,27.6,69.3,0,0.92,5,���쓌,3.8,59,,
2017/7/13,15:00:00,4,��,2.3,26.8,69.1,0,0.78,6,�쓌,3.9,38,,
2017/7/13,16:00:00,4,��,1.8,27.1,72.9,0,0.61,4,��,3.5,4,,
2017/7/13,17:00:00,4,��,2.3,25.3,76.3,0,0.44,4,��,3.1,31,,
2017/7/13,18:00:00,5,���쓌,1.7,23.5,82.8,0,0.23,4,��,3.1,5,,
2017/7/13,19:00:00,4,��,1.3,19.9,92.2,0,0.06,5,���쓌,2.5,38,,
2017/7/13,20:00:00,16,�É�,0,17.7,97.8,0,0,11,���쐼,2.7,9,,
2017/7/13,21:00:00,16,�É�,0,16.5,98.7,0,0,16,�É�,0,0,,
2017/7/13,22:00:00,16,�É�,0,15.7,98.9,0,0,1,�k�k��,2.1,22,,
2017/7/13,23:00:00,16,�É�,0,16.1,98.9,0,0,2,�k��,2.2,43,,
2017/7/13,0:00:00,16,�É�,0,13.9,99.2,0,0,16,�É�,0,0,,
2017/7/14,1:00:00,16,�É�,0,14.3,100,0,0,13,���k��,1.8,42,,
2017/7/14,2:00:00,16,�É�,0.1,13.6,100,0,0,12,��,2.3,31,,
2017/7/14,3:00:00,12,��,1.3,14.9,100,0,0,12,��,3.2,46,,
2017/7/14,4:00:00,13,���k��,1.1,13.9,99.9,0,0,12,��,2.9,2,,
2017/7/14,5:00:00,16,�É�,0.1,15.9,100,0,0.06,14,�k��,2.1,36,,
2017/7/14,6:00:00,16,�É�,0,18.7,92.8,0,0.21,12,��,2.1,16,,
2017/7/14,7:00:00,5,���쓌,0.6,22.4,89.5,0,0.41,3,���k��,2.3,28,,
2017/7/14,8:00:00,16,�É�,0,25.7,77.1,0,0.6,5,���쓌,1.9,31,,
2017/7/14,9:00:00,4,��,1.7,26.3,73.8,0,0.75,5,���쓌,3.5,47,,
2017/7/14,10:00:00,5,���쓌,2.5,25,73.3,0,0.89,5,���쓌,4.2,50,,
2017/7/14,11:00:00,5,���쓌,2.9,27,67.5,0,0.99,5,���쓌,4.2,49,,
2017/7/14,12:00:00,5,���쓌,0.5,29.1,60.9,0,1.02,5,���쓌,3.8,2,,
2017/7/14,13:00:00,16,�É�,0,29.5,62,0,0.98,5,���쓌,1.2,12,,
2017/7/14,14:00:00,16,�É�,0,31.6,66.1,0,0.89,8,��,0.8,20,,
2017/7/14,15:00:00,11,���쐼,4.6,33,49.1,0,0.75,10,�쐼,7.3,34,,
2017/7/14,16:00:00,11,���쐼,4.4,32.1,53.7,0,0.58,12,��,9.3,32,,
2017/7/14,17:00:00,10,�쐼,3.6,31.1,52.2,0,0.41,11,���쐼,6.4,2,,
2017/7/14,18:00:00,10,�쐼,2.8,28.7,58.4,0,0.21,10,�쐼,4.8,18,,
2017/7/14,19:00:00,10,�쐼,2,26.4,63.2,0,0.04,10,�쐼,5.1,19,,
2017/7/14,20:00:00,13,���k��,0.8,21.5,78.9,0,0,11,���쐼,3.3,17,,
2017/7/14,21:00:00,16,�É�,0,18.6,90.8,0,0,12,��,2.6,7,,
2017/7/14,22:00:00,12,��,2.5,19,93.5,0,0,12,��,3.2,57,,
2017/7/14,23:00:00,12,��,1.9,17.6,94.5,0,0,12,��,4.2,20,,
2017/7/14,0:00:00,12,��,2.1,17,94.9,0,0,13,���k��,3.8,13,,
2017/7/15,1:00:00,13,���k��,1.1,16.7,95.7,0,0,12,��,3.1,23,,
2017/7/15,2:00:00,16,�É�,0,15.7,94.4,0,0,12,��,3.5,27,,
2017/7/15,3:00:00,16,�É�,0.1,15.4,95.6,0,0,1,�k�k��,2.1,48,,
2017/7/15,4:00:00,15,�k�k��,0.7,15.4,96.9,0,0,16,�k,2.5,58,,
2017/7/15,5:00:00,11,���쐼,0.9,17.2,94.4,0,0.05,13,���k��,2.5,23,,
2017/7/15,6:00:00,16,�É�,0,21.1,87,0,0.2,13,���k��,2.2,18,,
2017/7/15,7:00:00,16,�É�,0.1,24.8,72.6,0,0.4,1,�k�k��,1.8,26,,
2017/7/15,8:00:00,2,�k��,1.4,27.4,61.4,0,0.59,3,���k��,2.5,48,,
2017/7/15,9:00:00,16,�É�,0,30.3,54.9,0,0.74,2,�k��,2.3,36,,
2017/7/15,10:00:00,6,�쓌,0.8,29,55.6,0,0.89,5,���쓌,4.2,33,,
2017/7/15,11:00:00,16,�É�,0,29.4,58.2,0,1,6,�쓌,1.4,4,,
2017/7/15,12:00:00,16,�É�,0,28.9,58.3,0,1.01,16,�É�,0,0,,
2017/7/15,13:00:00,16,�É�,0,29.5,58,0,1,16,�É�,0,0,,
2017/7/15,14:00:00,11,���쐼,2.7,33.9,39.1,0,0.91,11,���쐼,7.3,59,,
2017/7/15,15:00:00,11,���쐼,3.7,33.6,35.1,0,0.77,10,�쐼,9.2,23,,
2017/7/15,16:00:00,12,��,6.6,31.3,39.7,0,0.59,12,��,11,53,,
2017/7/15,17:00:00,11,���쐼,7.4,29.6,50.4,0,0.29,12,��,11.7,14,,
2017/7/15,18:00:00,11,���쐼,4.9,28.9,53,0,0.17,10,�쐼,11,11,,
2017/7/15,19:00:00,12,��,4.4,27.9,56.1,0,0.07,11,���쐼,9.2,34,,
2017/7/15,20:00:00,12,��,3.6,26.2,60.6,0,0,12,��,8.1,32,,
2017/7/15,21:00:00,11,���쐼,2.5,25.6,62.2,0,0,10,�쐼,5.3,13,,
2017/7/15,22:00:00,13,���k��,1.5,23.8,71.1,0,0,11,���쐼,6.8,27,,
2017/7/15,23:00:00,12,��,0.3,19.8,87.9,0,0,14,�k��,2.4,5,,
2017/7/15,0:00:00,13,���k��,2.1,19,92.4,0,0,13,���k��,2.7,53,,
2017/7/16,1:00:00,16,�É�,0.1,17.5,92.4,0,0,9,��쐼,2.7,0,,
2017/7/16,2:00:00,2,�k��,2.4,19.3,89.4,0,0,2,�k��,3.4,56,,
2017/7/16,3:00:00,1,�k�k��,1.7,18,93.9,0,0,2,�k��,3.8,14,,
2017/7/16,4:00:00,12,��,0.5,17.3,95.7,0,0,2,�k��,2.4,28,,
2017/7/16,5:00:00,16,�É�,0,18.7,96.2,0,0.03,12,��,2.2,5,,
2017/7/16,6:00:00,1,�k�k��,0.3,20.3,90.3,0,0.1,2,�k��,1.3,51,,
2017/7/16,7:00:00,2,�k��,1.4,22.2,84.8,0,0.22,3,���k��,2.8,26,,
2017/7/16,8:00:00,4,��,3.3,23.3,78.1,0,0.59,3,���k��,5.3,33,,
2017/7/16,9:00:00,4,��,2.8,22.4,83.6,0,0.43,4,��,4.8,15,,
2017/7/16,10:00:00,3,���k��,2.8,22.7,81.2,0,0.51,3,���k��,6,23,,
2017/7/16,11:00:00,4,��,3.2,22.4,83.6,0,0.62,4,��,4.8,37,,
2017/7/16,12:00:00,3,���k��,2.4,19.8,90.4,0,0.28,5,���쓌,5.5,22,,
2017/7/16,13:00:00,4,��,2.6,21.3,93.5,0,0.22,2,�k��,4.2,30,,
2017/7/16,14:00:00,3,���k��,0.5,21.4,93.1,0,0.24,5,���쓌,3.7,3,,
2017/7/16,15:00:00,16,�É�,0,21.1,94.4,0,0.12,3,���k��,2,0,,
2017/7/16,16:00:00,4,��,1.3,19,97.2,0.5,0.07,4,��,3.3,57,,
2017/7/16,17:00:00,2,�k��,3,19,98.6,0.5,0.04,2,�k��,4.2,55,,
2017/7/16,18:00:00,2,�k��,2.3,19.5,97.8,0.5,0.09,2,�k��,4.2,40,,
2017/7/16,19:00:00,2,�k��,2.1,18.7,98.4,0,0.03,2,�k��,3.9,27,,
2017/7/16,20:00:00,16,�É�,0,20.2,98.8,0.5,0,2,�k��,2.8,3,,
2017/7/16,21:00:00,14,�k��,0.9,20.5,96.5,0,0,13,���k��,2.1,55,,
2017/7/16,22:00:00,13,���k��,1.9,20.4,97.2,0,0,14,�k��,3.4,22,,
2017/7/16,23:00:00,16,�É�,0.1,19.4,94.1,0,0,14,�k��,3.3,30,,
2017/7/16,0:00:00,16,�É�,0,18.1,98.7,0,0,4,��,2.7,25,,
2017/7/17,1:00:00,4,��,1.3,18.9,95.8,0,0,15,�k�k��,4.7,31,,
2017/7/17,2:00:00,16,�É�,0,18.8,98.6,0,0,5,���쓌,2,13,,
2017/7/17,3:00:00,13,���k��,2.1,20.3,94.7,0,0,13,���k��,3.2,58,,
2017/7/17,4:00:00,14,�k��,1.4,20,91.4,0,0,15,�k�k��,5.1,19,,
2017/7/17,5:00:00,14,�k��,1.4,19.8,89.6,0,0.03,14,�k��,4,44,,
2017/7/17,6:00:00,16,�É�,0.2,20,89.6,0,0.07,14,�k��,3.2,1,,
2017/7/17,7:00:00,16,�É�,0,21.2,87.1,0,0.22,15,�k�k��,2,27,,
2017/7/17,8:00:00,2,�k��,1.8,23.1,79.4,0,0.47,2,�k��,4.8,35,,
2017/7/17,9:00:00,3,���k��,3.5,23.2,79.8,0,0.53,3,���k��,5.3,22,,
2017/7/17,10:00:00,6,�쓌,3.6,20.6,83.5,0,0.75,5,���쓌,6.1,36,,
2017/7/17,11:00:00,7,��쓌,3,18,88.6,0,0.46,7,��쓌,5.1,7,,
2017/7/17,12:00:00,8,��,2.3,17.7,89.4,0,0.2,8,��,3.9,59,,
2017/7/17,13:00:00,6,�쓌,1.9,16.7,94.1,0,0.07,8,��,4.4,0,,
2017/7/17,14:00:00,6,�쓌,0.3,16,97.2,2.5,0.03,6,�쓌,2.9,7,,